TimeCST,TemperatureF,Dew PointF,Humidity,Sea Level PressureIn,VisibilityMPH,Wind Direction,Wind SpeedMPH,Gust SpeedMPH,PrecipitationIn,Events,Conditions,WindDirDegrees,DateUTC
12:53 AM,45.0,42.1,90,30.26,10.0,NNE,3.5,-,N/A,,Mostly Cloudy,20,2013-01-20 06:53:00
1:53 AM,46.0,42.1,86,30.25,10.0,NNW,4.6,-,N/A,,Clear,340,2013-01-20 07:53:00
2:53 AM,45.0,42.1,90,30.24,10.0,Calm,Calm,-,N/A,,Clear,0,2013-01-20 08:53:00
3:53 AM,45.0,42.1,90,30.24,10.0,Calm,Calm,-,N/A,,Clear,0,2013-01-20 09:53:00
4:53 AM,43.0,41.0,93,30.24,10.0,North,4.6,-,N/A,,Clear,10,2013-01-20 10:53:00
5:53 AM,45.0,41.0,86,30.25,10.0,North,5.8,-,N/A,,Clear,360,2013-01-20 11:53:00
6:53 AM,46.0,41.0,83,30.26,10.0,North,6.9,-,N/A,,Clear,350,2013-01-20 12:53:00
7:53 AM,50.0,44.1,80,30.26,10.0,NNW,4.6,-,N/A,,Clear,340,2013-01-20 13:53:00
8:53 AM,57.0,45.0,64,30.27,10.0,NNW,4.6,-,N/A,,Clear,340,2013-01-20 14:53:00
9:53 AM,61.0,43.0,52,30.27,10.0,North,6.9,-,N/A,,Clear,10,2013-01-20 15:53:00
10:53 AM,63.0,43.0,48,30.25,10.0,NW,8.1,-,N/A,,Clear,320,2013-01-20 16:53:00
11:53 AM,64.0,42.1,45,30.22,10.0,Calm,Calm,-,N/A,,Clear,0,2013-01-20 17:53:00
12:53 PM,64.9,41.0,42,30.18,10.0,Calm,Calm,-,N/A,,Clear,0,2013-01-20 18:53:00
1:53 PM,66.0,41.0,40,30.15,10.0,Calm,Calm,-,N/A,,Clear,0,2013-01-20 19:53:00
2:53 PM,66.0,43.0,43,30.14,10.0,SSE,4.6,-,N/A,,Clear,160,2013-01-20 20:53:00
3:53 PM,64.0,44.1,48,30.14,10.0,South,6.9,-,N/A,,Clear,180,2013-01-20 21:53:00
4:53 PM,61.0,45.0,56,30.14,10.0,SW,5.8,-,N/A,,Clear,220,2013-01-20 22:53:00
5:53 PM,57.9,46.0,65,30.14,10.0,West,5.8,-,N/A,,Clear,260,2013-01-20 23:53:00
6:53 PM,55.9,46.9,72,30.15,10.0,West,4.6,-,N/A,,Clear,270,2013-01-21 00:53:00
7:53 PM,53.1,46.0,77,30.16,10.0,Calm,Calm,-,N/A,,Clear,0,2013-01-21 01:53:00
8:53 PM,53.1,46.9,80,30.17,10.0,West,5.8,-,N/A,,Clear,270,2013-01-21 02:53:00
9:53 PM,53.1,46.0,77,30.17,10.0,WNW,4.6,-,N/A,,Clear,290,2013-01-21 03:53:00
10:53 PM,51.1,45.0,80,30.17,10.0,WNW,5.8,-,N/A,,Clear,290,2013-01-21 04:53:00
11:53 PM,48.9,44.1,83,30.16,10.0,NW,3.5,-,N/A,,Clear,310,2013-01-21 05:53:00